Clipper 3 — ZMT3984 — position and weather

sailwx.info

Track history (hours):
 
Tides and Currents Weather Stations Pressure Air Temp Water Temp Dewpoint Dewpoint Depression Visibility Wind Speed Wind Dir Waves Ship Positions

Clipper 3

Last reported at 2014-Oct-30 15:30 UTC. Time now 2014-Oct-30 17:41 UTC.
Position S 36°53' E 174°59'.

Length 14 m; draft 1 m.

Type: High speed craft. MMSI: 512000741.

Date/timePositionNaut miles runAvg speedWind from/ knotsBaromVisibWave heightAir tempDewpointWater temp
2014-Oct-30 15:30S 36°53' E 174°59'0 0.0
2014-Oct-30 14:17S 36°53' E 174°59'0 0.0
2014-Oct-30 13:31S 36°53' E 174°59'0 0.0
2014-Oct-30 12:32S 36°53' E 174°59'0 0.0
2014-Oct-30 11:25S 36°53' E 174°59'0 0.0
2014-Oct-30 10:28S 36°53' E 174°59'0 0.0
2014-Oct-30 09:24S 36°53' E 174°59'0 0.0
2014-Oct-30 05:29S 36°53' E 174°59'4 4.4
2014-Oct-30 04:33S 36°51' E 174°55'7 7.3
2014-Oct-30 03:33S 36°51' E 174°46'11 5.4
2014-Oct-30 01:30S 36°53' E 174°59'4 4.8
2014-Oct-30 00:33S 36°51' E 174°55'5 4.4
2014-Oct-29 23:31S 36°53' E 174°59'4 4.4
2014-Oct-29 22:34S 36°51' E 174°55'1 0.3
2014-Oct-29 20:08S 36°51' E 174°54'3 5.5
2014-Oct-29 19:34S 36°50' E 174°50'3 3.3
2014-Oct-29 18:33S 36°50' E 174°46'11 2.7
2014-Oct-29 14:27S 36°53' E 174°59'0 0.0
2014-Oct-29 13:32S 36°53' E 174°59'0 0.0
2014-Oct-29 12:33S 36°53' E 174°59'0 0.0
2014-Oct-29 10:31S 36°53' E 174°59'0 0.0
2014-Oct-29 09:31S 36°53' E 174°59'0 0.0
2014-Oct-29 08:31S 36°53' E 174°59'0 0.0
2014-Oct-29 07:33S 36°53' E 174°59'5 2.3
2014-Oct-29 05:18S 36°51' E 174°54'6 3.7
2014-Oct-29 03:33S 36°51' E 174°46'11 5.3
2014-Oct-29 01:30S 36°53' E 174°59'4 4.2
2014-Oct-29 00:33S 36°51' E 174°55'4 4.1
2014-Oct-28 23:34S 36°53' E 174°59'4 4.1
2014-Oct-28 22:33S 36°51' E 174°55'4 2.0
2014-Oct-28 20:33S 36°53' E 174°59'8 8.2
2014-Oct-28 19:34S 36°50' E 174°50'3 3.2
2014-Oct-28 18:32S 36°51' E 174°46'1111.2
2014-Oct-28 17:32S 36°53' E 174°59'0 0.0
2014-Oct-28 13:22S 36°53' E 174°59'0 0.0
2014-Oct-28 11:12S 36°53' E 174°59'0 0.0
2014-Oct-28 10:19S 36°53' E 174°59'0 0.0
2014-Oct-28 06:20S 36°53' E 174°59'0 0.1
2014-Oct-28 05:29S 36°53' E 174°59'4 4.7
2014-Oct-28 04:33S 36°51' E 174°55'7 6.1
2014-Oct-28 03:28S 36°50' E 174°47'7 3.0
2014-Oct-28 01:17S 36°51' E 174°55'0 0.3
2014-Oct-28 00:33S 36°51' E 174°54'5 4.5
2014-Oct-27 23:30S 36°53' E 174°59'4 4.5
2014-Oct-27 22:33S 36°51' E 174°55'4 2.1
2014-Oct-27 20:33S 36°53' E 174°59'9 8.9
2014-Oct-27 19:32S 36°50' E 174°49'2 2.3
2014-Oct-27 18:32S 36°51' E 174°46'11 1.6
2014-Oct-27 11:28S 36°53' E 174°59'0 0.0
2014-Oct-27 09:23S 36°53' E 174°59'6 1.3
2014-Oct-27 04:33S 36°47' E 174°59'1110.8
2014-Oct-27 03:33S 36°51' E 174°46'0 0.0
2014-Oct-27 02:33S 36°51' E 174°46'1111.2
2014-Oct-27 01:33S 36°47' E 174°59'1111.3
2014-Oct-27 00:34S 36°51' E 174°46'8 8.0
2014-Oct-26 23:33S 36°48' E 174°55'3 2.8
2014-Oct-26 22:33S 36°47' E 174°59'1110.7
2014-Oct-26 21:33S 36°51' E 174°46'1110.8
2014-Oct-26 20:33S 36°48' E 174°59'5 0.4
2014-Oct-26 05:21S 36°53' E 174°59'6 8.2
2014-Oct-26 04:33S 36°47' E 174°59'1111.1
2014-Oct-26 03:33S 36°51' E 174°46'0 0.0
2014-Oct-26 02:33S 36°51' E 174°46'1111.3
2014-Oct-26 01:33S 36°47' E 174°59'1111.3
2014-Oct-26 00:33S 36°51' E 174°46'7 6.8
2014-Oct-25 23:34S 36°49' E 174°54'5 4.7
2014-Oct-25 22:33S 36°47' E 174°59'1111.3
2014-Oct-25 21:33S 36°51' E 174°46'1110.8
2014-Oct-25 20:33S 36°48' E 174°59'6 0.4
2014-Oct-25 05:19S 36°53' E 174°59'6 8.5
2014-Oct-25 04:34S 36°47' E 174°59'1111.0
2014-Oct-25 03:33S 36°51' E 174°46'0 0.0
2014-Oct-25 02:33S 36°51' E 174°46'1111.0
2014-Oct-25 01:33S 36°47' E 174°59'1111.0
2014-Oct-25 00:33S 36°51' E 174°46'8 7.5
2014-Oct-24 23:33S 36°48' E 174°55'3 3.4
2014-Oct-24 22:33S 36°47' E 174°59'1111.0
2014-Oct-24 21:34S 36°51' E 174°46'1110.6
2014-Oct-24 20:33S 36°48' E 174°59'5 0.3
2014-Oct-24 05:17S 36°51' E 174°54'3 4.0
2014-Oct-24 04:30S 36°53' E 174°58'1010.1
2014-Oct-24 03:33S 36°51' E 174°46'11 5.5
2014-Oct-24 01:31S 36°53' E 174°59'5 4.8
2014-Oct-24 00:34S 36°51' E 174°55'4 4.0
2014-Oct-23 23:28S 36°53' E 174°59'4 4.5
2014-Oct-23 22:34S 36°51' E 174°55'0 0.0
2014-Oct-23 20:13S 36°51' E 174°55'4 6.0
2014-Oct-23 19:33S 36°50' E 174°50'3 3.1
2014-Oct-23 18:33S 36°50' E 174°46'11 0.8
2014-Oct-23 05:28S 36°53' E 174°59'4 4.3
2014-Oct-23 04:33S 36°51' E 174°55'7 7.4
2014-Oct-23 03:33S 36°51' E 174°46'11 5.5
2014-Oct-23 01:32S 36°53' E 174°59'5 4.7
2014-Oct-23 00:33S 36°51' E 174°55'0 0.0
2014-Oct-22 23:17S 36°51' E 174°55'4 1.5
2014-Oct-22 20:22S 36°53' E 174°59'810.1
2014-Oct-22 19:33S 36°50' E 174°50'2 2.5
2014-Oct-22 18:33S 36°50' E 174°47'1110.7
2014-Oct-22 17:33S 36°53' E 174°59'0 0.0
2014-Oct-22 16:32S 36°53' E 174°59'0 0.0
2014-Oct-22 05:32S 36°53' E 174°59'0 0.0
2014-Oct-22 04:13S 36°53' E 174°59'1116.8
2014-Oct-22 03:33S 36°51' E 174°46'11 5.4
2014-Oct-22 01:32S 36°53' E 174°59'0 0.0
2014-Oct-21 20:33S 36°53' E 174°59'8 7.8
2014-Oct-21 19:33S 36°50' E 174°50'3 3.3
2014-Oct-21 18:33S 36°50' E 174°46'11 0.8
2014-Oct-21 05:27S 36°53' E 174°59'3 3.6
2014-Oct-21 04:33S 36°52' E 174°56'8 8.0
2014-Oct-21 03:33S 36°51' E 174°46'6 2.8
2014-Oct-21 01:17S 36°51' E 174°54'1 1.5
2014-Oct-21 00:33S 36°51' E 174°55'4 3.7
2014-Oct-20 23:28S 36°53' E 174°59'1 0.4
2014-Oct-20 20:18S 36°52' E 174°58'810.9
2014-Oct-20 19:33S 36°50' E 174°49'2 1.8
2014-Oct-20 18:33S 36°50' E 174°46'  
Track history (hours):
 
Tides and Currents Weather Stations Pressure Air Temp Water Temp Dewpoint Dewpoint Depression Visibility Wind Speed Wind Dir Waves Ship Positions

Clipper 3

Last reported at 2014-Oct-30 15:30 UTC. Time now 2014-Oct-30 17:41 UTC.
Position S 36°53' E 174°59'.

Length 14 m; draft 1 m.

Type: High speed craft. MMSI: 512000741.

Date/timePositionNaut miles runAvg speedWind from/ knotsBaromVisibWave heightAir tempDewpointWater temp
2014-Oct-30 15:30S 36°53' E 174°59'0 0.0
2014-Oct-30 14:17S 36°53' E 174°59'0 0.0
2014-Oct-30 13:31S 36°53' E 174°59'0 0.0
2014-Oct-30 12:32S 36°53' E 174°59'0 0.0
2014-Oct-30 11:25S 36°53' E 174°59'0 0.0
2014-Oct-30 10:28S 36°53' E 174°59'0 0.0
2014-Oct-30 09:24S 36°53' E 174°59'0 0.0
2014-Oct-30 05:29S 36°53' E 174°59'4 4.4
2014-Oct-30 04:33S 36°51' E 174°55'7 7.3
2014-Oct-30 03:33S 36°51' E 174°46'11 5.4
2014-Oct-30 01:30S 36°53' E 174°59'4 4.8
2014-Oct-30 00:33S 36°51' E 174°55'5 4.4
2014-Oct-29 23:31S 36°53' E 174°59'4 4.4
2014-Oct-29 22:34S 36°51' E 174°55'1 0.3
2014-Oct-29 20:08S 36°51' E 174°54'3 5.5
2014-Oct-29 19:34S 36°50' E 174°50'3 3.3
2014-Oct-29 18:33S 36°50' E 174°46'11 2.7
2014-Oct-29 14:27S 36°53' E 174°59'0 0.0
2014-Oct-29 13:32S 36°53' E 174°59'0 0.0
2014-Oct-29 12:33S 36°53' E 174°59'0 0.0
2014-Oct-29 10:31S 36°53' E 174°59'0 0.0
2014-Oct-29 09:31S 36°53' E 174°59'0 0.0
2014-Oct-29 08:31S 36°53' E 174°59'0 0.0
2014-Oct-29 07:33S 36°53' E 174°59'5 2.3
2014-Oct-29 05:18S 36°51' E 174°54'6 3.7
2014-Oct-29 03:33S 36°51' E 174°46'11 5.3
2014-Oct-29 01:30S 36°53' E 174°59'4 4.2
2014-Oct-29 00:33S 36°51' E 174°55'4 4.1
2014-Oct-28 23:34S 36°53' E 174°59'4 4.1
2014-Oct-28 22:33S 36°51' E 174°55'4 2.0
2014-Oct-28 20:33S 36°53' E 174°59'8 8.2
2014-Oct-28 19:34S 36°50' E 174°50'3 3.2
2014-Oct-28 18:32S 36°51' E 174°46'1111.2
2014-Oct-28 17:32S 36°53' E 174°59'0 0.0
2014-Oct-28 13:22S 36°53' E 174°59'0 0.0
2014-Oct-28 11:12S 36°53' E 174°59'0 0.0
2014-Oct-28 10:19S 36°53' E 174°59'0 0.0
2014-Oct-28 06:20S 36°53' E 174°59'0 0.1
2014-Oct-28 05:29S 36°53' E 174°59'4 4.7
2014-Oct-28 04:33S 36°51' E 174°55'7 6.1
2014-Oct-28 03:28S 36°50' E 174°47'7 3.0
2014-Oct-28 01:17S 36°51' E 174°55'0 0.3
2014-Oct-28 00:33S 36°51' E 174°54'5 4.5
2014-Oct-27 23:30S 36°53' E 174°59'4 4.5
2014-Oct-27 22:33S 36°51' E 174°55'4 2.1
2014-Oct-27 20:33S 36°53' E 174°59'9 8.9
2014-Oct-27 19:32S 36°50' E 174°49'2 2.3
2014-Oct-27 18:32S 36°51' E 174°46'11 1.6
2014-Oct-27 11:28S 36°53' E 174°59'0 0.0
2014-Oct-27 09:23S 36°53' E 174°59'6 1.3
2014-Oct-27 04:33S 36°47' E 174°59'1110.8
2014-Oct-27 03:33S 36°51' E 174°46'0 0.0
2014-Oct-27 02:33S 36°51' E 174°46'1111.2
2014-Oct-27 01:33S 36°47' E 174°59'1111.3
2014-Oct-27 00:34S 36°51' E 174°46'8 8.0
2014-Oct-26 23:33S 36°48' E 174°55'3 2.8
2014-Oct-26 22:33S 36°47' E 174°59'1110.7
2014-Oct-26 21:33S 36°51' E 174°46'1110.8
2014-Oct-26 20:33S 36°48' E 174°59'5 0.4
2014-Oct-26 05:21S 36°53' E 174°59'6 8.2
2014-Oct-26 04:33S 36°47' E 174°59'1111.1
2014-Oct-26 03:33S 36°51' E 174°46'0 0.0
2014-Oct-26 02:33S 36°51' E 174°46'1111.3
2014-Oct-26 01:33S 36°47' E 174°59'1111.3
2014-Oct-26 00:33S 36°51' E 174°46'7 6.8
2014-Oct-25 23:34S 36°49' E 174°54'5 4.7
2014-Oct-25 22:33S 36°47' E 174°59'1111.3
2014-Oct-25 21:33S 36°51' E 174°46'1110.8
2014-Oct-25 20:33S 36°48' E 174°59'6 0.4
2014-Oct-25 05:19S 36°53' E 174°59'6 8.5
2014-Oct-25 04:34S 36°47' E 174°59'1111.0
2014-Oct-25 03:33S 36°51' E 174°46'0 0.0
2014-Oct-25 02:33S 36°51' E 174°46'1111.0
2014-Oct-25 01:33S 36°47' E 174°59'1111.0
2014-Oct-25 00:33S 36°51' E 174°46'8 7.5
2014-Oct-24 23:33S 36°48' E 174°55'3 3.4
2014-Oct-24 22:33S 36°47' E 174°59'1111.0
2014-Oct-24 21:34S 36°51' E 174°46'1110.6
2014-Oct-24 20:33S 36°48' E 174°59'5 0.3
2014-Oct-24 05:17S 36°51' E 174°54'3 4.0
2014-Oct-24 04:30S 36°53' E 174°58'1010.1
2014-Oct-24 03:33S 36°51' E 174°46'11 5.5
2014-Oct-24 01:31S 36°53' E 174°59'5 4.8
2014-Oct-24 00:34S 36°51' E 174°55'4 4.0
2014-Oct-23 23:28S 36°53' E 174°59'4 4.5
2014-Oct-23 22:34S 36°51' E 174°55'0 0.0
2014-Oct-23 20:13S 36°51' E 174°55'4 6.0
2014-Oct-23 19:33S 36°50' E 174°50'3 3.1
2014-Oct-23 18:33S 36°50' E 174°46'11 0.8
2014-Oct-23 05:28S 36°53' E 174°59'4 4.3
2014-Oct-23 04:33S 36°51' E 174°55'7 7.4
2014-Oct-23 03:33S 36°51' E 174°46'11 5.5
2014-Oct-23 01:32S 36°53' E 174°59'5 4.7
2014-Oct-23 00:33S 36°51' E 174°55'0 0.0
2014-Oct-22 23:17S 36°51' E 174°55'4 1.5
2014-Oct-22 20:22S 36°53' E 174°59'810.1
2014-Oct-22 19:33S 36°50' E 174°50'2 2.5
2014-Oct-22 18:33S 36°50' E 174°47'1110.7
2014-Oct-22 17:33S 36°53' E 174°59'0 0.0
2014-Oct-22 16:32S 36°53' E 174°59'0 0.0
2014-Oct-22 05:32S 36°53' E 174°59'0 0.0
2014-Oct-22 04:13S 36°53' E 174°59'1116.8
2014-Oct-22 03:33S 36°51' E 174°46'11 5.4
2014-Oct-22 01:32S 36°53' E 174°59'0 0.0
2014-Oct-21 20:33S 36°53' E 174°59'8 7.8
2014-Oct-21 19:33S 36°50' E 174°50'3 3.3
2014-Oct-21 18:33S 36°50' E 174°46'11 0.8
2014-Oct-21 05:27S 36°53' E 174°59'3 3.6
2014-Oct-21 04:33S 36°52' E 174°56'8 8.0
2014-Oct-21 03:33S 36°51' E 174°46'6 2.8
2014-Oct-21 01:17S 36°51' E 174°54'1 1.5
2014-Oct-21 00:33S 36°51' E 174°55'4 3.7
2014-Oct-20 23:28S 36°53' E 174°59'1 0.4
2014-Oct-20 20:18S 36°52' E 174°58'810.9
2014-Oct-20 19:33S 36°50' E 174°49'2 1.8
2014-Oct-20 18:33S 36°50' E 174°46'  

Dump ship's entire track history